Wind_Speed
50 47 45 42 39 37 33 28 27 29 27 21 18 18 18 17 17 18 19 19 18 16 15 16 16 15 14 13 13 14 12 9 7 8 8 8 8 7 6 5 4 3 2 1 1 1 0 1 2 3 4 6 8 8 9 11 12 13 13 13 13 13 13
54 50 48 46 44 41 38 34 31 31 30 25 21 20 19 19 20 20 20 20 20 17 16 16 17 17 15 14 14 13 12 8 6 7 9 10 10 9 8 8 7 6 4 3 3 3 2 2 1 1 2 4 5 6 7 9 10 11 12 12 13 12 12
57 54 51 49 46 43 41 39 36 33 30 26 24 23 21 20 22 22 21 20 20 17 16 17 18 18 16 16 15 14 11 8 6 6 8 10 10 10 10 10 10 9 7 6 5 4 4 4 3 3 2 2 3 4 5 6 8 10 11 11 12 11 11
60 58 54 51 49 46 44 43 38 34 31 28 27 26 23 21 23 24 23 21 20 18 17 18 18 17 16 16 16 14 12 9 6 5 7 9 10 11 11 12 12 11 10 9 7 6 6 6 5 5 4 3 2 2 3 5 6 8 9 10 10 11 10
62 60 57 54 52 48 45 43 39 33 31 30 26 25 24 22 23 26 26 24 22 20 20 19 17 15 14 15 15 14 13 12 8 5 5 7 9 11 12 13 14 13 12 11 10 9 8 7 7 7 6 5 4 3 3 3 4 6 7 8 9 10 10
64 62 60 58 54 48 43 39 36 34 33 30 26 26 29 27 27 29 27 25 25 24 23 20 15 12 12 13 14 14 14 12 10 8 7 8 9 11 12 14 14 14 14 13 12 12 11 9 9 9 9 8 6 5 4 4 4 5 6 7 8 9 9
64 64 62 61 57 52 46 41 39 39 37 32 29 32 33 30 29 29 27 26 27 26 24 19 14 12 10 10 12 14 14 12 9 8 9 9 10 12 13 14 15 15 15 15 14 13 13 12 11 10 10 10 9 8 7 6 6 6 6 7 8 8 9
61 64 64 62 59 54 50 49 47 46 43 37 34 34 32 28 29 29 29 29 29 27 26 22 17 15 11 9 10 14 16 15 12 10 9 10 11 12 13 13 14 15 16 17 17 16 14 14 13 13 12 12 12 11 10 9 8 8 8 8 8 9 9
62 64 66 64 60 54 50 50 49 48 46 42 40 38 32 29 31 31 31 31 30 28 27 24 20 18 14 11 10 13 17 18 18 17 14 13 13 14 13 13 14 16 16 18 19 18 17 15 15 14 14 13 13 13 12 11 10 10 9 9 9 9 9
67 63 65 65 63 56 51 50 50 48 46 42 40 38 35 32 33 34 33 31 29 27 26 24 23 22 19 16 15 16 18 19 20 21 21 19 19 18 16 15 16 16 17 18 19 19 19 18 17 16 15 15 15 15 15 14 13 12 11 11 10 10 9
72 66 63 63 63 62 57 53 50 45 42 40 37 34 35 37 37 35 33 30 27 26 26 27 28 27 24 21 18 18 19 21 20 21 22 23 23 22 19 17 17 18 18 19 19 20 20 20 20 18 17 17 17 17 17 16 15 14 13 12 12 11 10
74 72 68 63 62 64 63 60 56 50 47 46 43 38 38 39 38 36 33 31 28 27 28 29 28 27 26 25 22 20 21 24 24 22 23 24 24 24 21 19 18 18 19 19 19 20 20 20 21 21 20 20 19 19 19 18 17 16 15 14 13 13 11
72 74 72 66 62 62 64 63 62 58 55 53 48 44 42 40 37 37 36 32 28 28 29 30 30 29 29 28 28 26 24 26 26 26 26 26 25 25 25 23 21 20 19 20 20 19 19 20 21 22 23 22 21 21 21 20 19 18 17 17 15 14 13
71 73 74 71 65 62 62 63 62 59 56 53 49 45 43 39 37 38 37 33 29 28 29 31 35 37 35 33 32 32 30 29 29 30 30 28 26 27 27 26 24 22 20 20 21 20 18 19 21 23 24 24 23 22 22 21 21 19 18 18 17 16 15
69 72 74 74 71 66 63 63 63 61 58 55 53 50 43 36 33 35 37 37 35 34 36 37 39 42 42 40 38 36 36 36 35 35 33 29 28 29 29 27 25 24 23 21 21 21 20 19 20 22 24 25 24 23 23 23 22 21 19 19 19 18 17
69 70 72 74 74 70 66 63 63 63 61 58 59 58 50 38 33 33 34 37 39 40 42 44 46 46 44 42 41 40 39 40 39 37 35 31 29 30 29 27 26 27 27 25 23 22 22 21 20 20 22 24 25 25 24 24 24 23 21 20 19 19 18
73 72 71 72 73 72 67 63 61 61 61 60 61 65 63 54 47 41 37 36 36 36 40 44 46 44 41 41 42 42 41 41 40 39 38 35 32 31 30 30 29 28 29 29 26 24 23 22 21 21 21 23 25 26 26 26 25 25 24 22 21 20 19
77 75 73 72 73 73 69 65 63 61 60 62 63 66 69 68 64 58 51 45 39 35 39 46 47 45 45 44 43 42 42 43 42 41 40 39 37 35 33 33 32 31 31 32 30 26 24 24 24 23 22 23 25 26 26 26 26 26 26 25 23 21 21
82 80 78 75 74 75 73 69 68 66 64 64 66 68 69 72 73 71 66 61 55 50 51 54 51 49 51 49 44 43 44 45 44 42 41 41 41 40 37 36 35 35 36 36 34 31 29 29 29 27 24 23 24 26 26 26 26 26 27 26 25 23 22
87 84 82 79 76 76 75 73 72 73 72 70 69 70 71 72 73 74 72 71 68 64 62 61 56 52 51 47 41 40 44 46 47 45 42 42 42 42 41 40 39 40 40 41 39 37 35 34 33 31 28 25 25 25 26 25 24 25 26 26 26 24 24
91 88 85 82 78 76 77 76 73 73 76 76 75 75 75 75 74 74 74 73 71 69 67 66 61 55 51 47 44 43 45 46 46 46 44 43 44 44 44 44 43 43 43 43 42 40 38 37 37 34 31 28 26 25 25 24 22 23 23 24 25 26 26
96 94 90 87 83 79 79 78 76 74 74 76 76 76 76 76 76 75 75 74 72 70 68 67 65 60 56 55 56 55 51 46 44 44 43 42 44 47 48 48 47 46 45 44 43 42 41 40 39 37 34 31 29 26 24 22 21 21 22 23 25 26 27
98 98 96 93 91 87 84 82 81 80 78 77 76 76 76 75 75 74 74 74 73 72 70 69 69 67 65 65 65 62 58 51 45 41 39 36 37 42 45 47 48 47 46 45 44 44 44 43 42 40 36 34 33 30 26 23 21 22 23 24 25 26 28
99 100 99 98 96 94 91 87 85 84 84 82 80 78 77 76 74 72 72 72 73 73 72 71 72 72 72 72 70 68 65 60 50 40 35 31 33 37 39 40 43 45 46 46 46 45 46 46 45 43 40 38 36 33 30 27 24 24 24 25 26 27 28
100 100 101 100 100 98 96 92 89 86 86 85 82 81 79 78 76 74 72 70 70 70 71 71 71 71 71 72 71 70 68 64 55 46 42 38 37 39 38 37 38 41 44 47 48 48 48 47 46 45 43 41 38 36 33 30 29 28 28 28 27 27 27
104 103 103 102 102 101 99 96 93 90 88 87 84 83 81 80 79 77 76 73 71 70 70 70 70 70 70 70 71 72 70 66 61 56 53 49 45 44 44 42 39 40 43 47 50 50 50 50 48 47 45 43 41 39 37 34 33 32 32 32 30 29 28
108 107 106 105 103 102 100 98 96 95 93 91 88 86 84 83 82 80 79 78 76 74 72 71 70 70 70 70 71 73 73 71 68 66 65 62 58 54 52 52 50 48 50 52 53 52 52 51 50 49 47 46 44 43 40 38 37 35 34 34 34 32 32
111 110 108 107 105 103 102 100 98 97 96 95 92 89 87 86 84 84 83 81 79 78 76 74 72 70 70 70 71 74 75 74 73 71 71 72 69 62 58 58 58 57 56 56 57 56 55 53 52 50 49 48 47 45 44 42 41 39 38 36 36 35 35
113 112 110 108 107 105 103 102 100 99 98 97 95 93 90 89 87 87 86 84 82 81 80 78 76 74 72 71 71 72 76 77 76 74 73 73 71 66 62 61 61 60 58 58 58 59 58 57 55 53 52 51 49 48 48 46 45 43 41 39 38 38 38
114 113 112 110 109 107 105 103 102 102 101 99 97 95 93 92 91 90 89 87 86 84 83 81 79 77 77 76 74 73 74 77 78 78 76 75 72 68 65 64 63 62 62 60 59 59 60 60 59 57 56 55 54 53 52 51 49 46 44 43 42 41 41
115 114 114 113 112 110 108 106 104 104 103 102 100 98 96 95 94 93 92 91 89 88 87 85 83 81 80 80 79 77 76 77 79 80 80 79 76 72 69 67 66 65 64 64 63 61 60 59 60 60 59 58 58 57 57 56 54 50 47 46 46 44 44
114 115 116 116 115 114 111 109 107 106 106 104 103 101 99 98 98 96 95 94 94 92 91 90 88 86 85 83 82 81 80 79 80 82 83 82 81 78 75 72 70 69 68 67 66 65 62 60 59 60 60 59 59 60 60 60 58 54 51 50 49 48 46
115 115 115 115 116 116 114 112 111 109 108 107 105 104 102 101 101 100 100 99 98 97 95 94 92 91 89 87 85 84 83 82 83 84 85 85 84 83 80 78 76 74 72 71 70 70 69 65 62 60 60 60 60 61 62 62 62 60 57 54 52 50 47
116 116 116 116 116 117 116 115 114 113 111 110 109 107 106 105 104 103 103 103 101 100 99 97 96 95 93 92 90 88 86 86 85 86 87 87 87 86 85 83 81 79 78 76 75 74 74 72 69 66 63 61 61 61 62 63 64 64 63 60 56 53 50
118 119 119 119 119 118 117 116 115 115 114 113 112 111 110 109 107 106 105 105 104 103 102 101 100 99 98 96 95 93 91 90 89 88 88 89 89 88 88 87 85 83 82 81 81 80 78 77 76 74 71 68 65 63 63 63 64 65 66 64 60 57 56
120 121 121 121 121 121 120 118 117 116 116 116 116 115 114 112 110 108 107 106 106 105 105 105 104 103 102 101 99 98 96 94 93 92 91 91 91 91 90 90 89 87 85 84 83 83 83 82 82 80 78 76 73 70 67 66 65 66 67 66 64 62 62
120 121 121 122 122 123 122 121 119 119 118 118 118 118 116 115 114 112 110 109 108 107 107 107 107 106 105 105 104 102 101 99 97 96 94 93 93 93 92 92 91 90 88 86 84 83 84 85 86 85 83 81 80 78 75 72 69 68 68 68 67 66 66
119 120 121 122 123 123 123 123 122 121 120 120 119 119 119 117 116 115 114 112 111 110 109 109 109 109 109 108 107 106 105 103 102 100 98 97 96 95 95 94 94 93 92 90 88 87 86 86 88 89 88 86 85 83 81 79 77 74 72 71 70 70 71
Wind_Direction
239 238 237 239 242 244 243 238 236 238 243 259 268 260 264 271 275 281 282 291 302 291 278 284 290 293 296 296 298 299 301 303 297 283 270 264 262 264 273 280 286 292 293 299 299 297 329 69 62 55 49 50 50 47 41 40 41 43 47 53 56 58 60
238 238 238 238 240 243 244 242 241 245 249 258 263 253 256 268 274 278 278 286 298 293 279 280 286 290 290 292 294 294 297 305 305 288 273 267 264 262 266 274 278 281 280 275 273 273 271 275 300 358 31 44 48 45 37 35 37 39 42 47 52 55 57
237 238 237 237 238 239 242 241 243 250 252 254 258 256 258 268 274 276 277 284 295 293 284 283 286 291 293 292 292 289 293 306 309 289 276 272 269 266 265 269 274 276 276 274 267 265 265 265 270 284 315 11 36 38 31 27 31 35 37 42 47 49 52
236 237 237 237 236 236 239 240 244 250 250 253 263 264 263 269 272 271 271 278 287 287 283 282 282 288 292 292 291 288 293 305 305 291 285 277 273 268 266 268 272 275 277 277 272 269 265 264 265 270 281 297 333 6 13 15 19 25 28 34 40 43 46
236 237 238 237 236 235 237 240 244 249 248 253 261 258 255 263 266 265 267 272 274 273 273 273 273 280 285 284 282 281 290 304 307 304 302 289 278 269 265 269 273 276 278 279 280 277 271 265 264 266 271 280 292 307 328 346 358 8 14 19 28 36 39
237 237 237 237 237 233 233 237 242 243 243 245 242 235 240 253 257 255 259 266 265 262 267 270 273 282 286 279 272 270 280 295 304 310 314 304 288 273 266 267 274 279 279 280 283 282 278 273 268 267 269 274 280 286 296 312 326 340 353 360 10 23 31
236 236 237 237 237 234 230 232 235 233 234 236 234 231 236 250 253 245 246 258 263 261 264 270 276 288 297 292 282 280 285 294 302 313 319 313 301 286 274 270 272 278 281 280 280 281 282 281 275 269 268 271 276 280 284 295 306 317 329 339 350 5 19
236 235 235 235 236 235 233 234 235 234 234 237 237 236 239 249 253 246 244 253 260 259 260 265 271 280 291 296 292 291 295 300 305 309 313 313 305 293 282 276 273 276 278 277 276 276 279 280 278 272 268 268 271 275 279 285 293 302 312 322 333 347 5
236 236 235 234 234 234 235 238 238 236 235 235 237 238 240 244 248 248 248 252 255 256 258 262 265 268 270 272 280 286 288 294 297 296 298 302 300 292 282 274 271 271 273 274 272 269 268 270 272 271 267 265 265 269 273 278 283 291 299 308 318 330 346
233 235 234 234 232 230 231 235 238 238 237 236 237 237 235 235 238 242 245 250 256 261 264 266 265 263 261 261 272 281 280 282 285 286 288 292 293 293 287 277 269 264 265 269 268 265 261 258 260 261 261 261 260 262 266 271 275 281 287 295 304 315 327
229 231 233 234 233 229 226 228 231 234 232 228 229 231 228 227 230 233 237 243 251 260 265 266 266 265 263 260 265 271 265 263 271 278 280 284 288 290 289 283 275 268 266 269 270 268 263 257 253 251 250 252 254 257 260 264 269 273 278 285 292 301 312
228 230 233 234 232 230 227 226 226 226 225 223 225 227 226 224 225 228 233 237 238 243 250 256 260 264 264 261 263 264 254 253 264 271 269 273 280 283 284 284 279 270 266 269 272 273 270 266 259 251 245 244 248 252 255 258 264 269 274 279 285 292 301
228 229 230 231 230 229 228 228 228 228 228 226 225 223 222 222 224 227 232 236 235 235 240 246 250 254 259 263 265 264 254 252 262 266 263 265 272 277 281 283 280 272 265 265 268 271 271 269 266 259 251 246 246 249 252 255 260 266 271 276 281 287 295
227 227 227 228 229 229 228 228 228 227 227 225 219 214 214 218 222 226 229 232 233 231 230 235 240 245 252 259 263 263 256 252 256 259 260 263 265 268 276 280 277 273 270 267 266 270 271 267 264 262 258 255 252 252 255 257 260 263 268 274 279 284 290
225 226 227 228 229 230 230 229 228 227 227 224 218 212 208 211 218 224 227 230 230 229 229 233 240 247 253 256 258 261 259 255 255 255 258 260 259 261 269 275 272 269 271 272 268 267 269 265 260 259 260 260 261 261 263 263 264 265 268 272 277 281 285
225 226 227 227 228 229 230 230 229 228 228 225 219 213 208 206 210 218 223 227 230 233 236 241 247 251 254 255 255 259 259 257 255 254 253 255 254 256 262 268 268 265 267 270 267 262 263 265 261 258 258 259 262 264 267 269 269 269 270 272 275 278 281
224 225 226 227 226 226 227 227 226 226 225 221 217 214 212 209 206 207 210 216 222 231 238 243 244 246 250 253 255 257 257 255 253 252 251 251 250 249 251 256 261 263 263 264 262 257 257 261 261 258 255 255 257 259 262 265 268 270 271 272 274 276 279
225 224 225 227 225 224 224 224 223 221 220 218 215 215 216 214 212 210 211 214 218 227 237 241 241 242 245 249 250 251 252 252 250 249 250 250 248 246 245 247 252 257 259 259 258 255 254 259 261 259 255 252 253 254 256 258 260 264 268 271 274 276 278
227 226 226 227 227 225 223 223 222 219 218 216 215 215 216 217 218 218 220 223 225 230 235 238 241 244 244 244 246 248 249 249 247 247 248 249 248 246 244 244 246 250 254 255 253 253 256 261 263 263 261 257 254 254 256 256 256 258 261 265 269 272 275
229 229 227 228 229 228 225 224 222 220 219 218 218 217 217 218 220 222 224 227 229 232 234 236 238 240 240 240 242 244 245 243 243 244 245 246 246 246 245 245 247 249 252 252 250 251 255 259 261 263 263 260 257 256 258 259 257 257 259 262 264 267 269
229 229 229 228 229 228 226 224 223 222 221 222 222 222 223 223 224 226 227 229 231 232 234 234 234 233 234 233 233 236 239 239 240 242 244 245 247 248 247 247 248 249 250 249 247 248 252 254 256 259 261 260 258 257 261 265 265 262 261 261 263 264 265
229 229 230 229 229 228 226 225 225 224 223 223 224 225 226 226 227 227 229 229 230 231 231 231 230 228 228 228 229 232 237 239 239 241 245 250 252 251 247 246 246 246 246 244 244 247 250 251 252 253 256 258 259 259 262 268 273 270 265 262 260 261 263
230 230 230 230 229 229 228 227 227 227 227 226 226 226 227 227 227 228 229 229 230 229 229 228 228 228 229 229 231 234 236 237 238 239 242 249 251 248 245 243 242 242 241 241 243 247 249 249 248 249 253 256 257 258 260 265 272 274 270 265 261 260 262
230 230 230 230 230 230 230 229 229 229 229 228 228 227 228 228 228 228 229 229 229 229 228 228 228 229 231 233 234 235 235 236 235 230 229 235 237 235 236 239 240 240 241 242 243 246 248 247 246 248 251 254 255 255 256 259 264 269 268 265 262 261 263
230 231 231 231 231 231 230 230 229 229 229 228 228 228 229 229 230 229 227 227 228 228 228 228 228 229 230 231 231 231 232 231 226 218 215 220 224 224 226 233 238 240 243 244 244 244 245 245 245 246 249 251 253 252 252 254 257 261 263 262 261 261 262
230 230 230 231 231 231 230 230 229 228 228 228 229 229 230 231 231 230 228 227 227 228 228 229 229 229 229 229 228 227 227 226 221 217 216 218 223 226 224 227 233 236 238 241 242 242 243 243 244 245 246 248 250 249 248 249 251 254 257 259 260 261 262
230 230 230 231 231 231 231 230 229 229 229 230 230 231 231 231 232 232 231 230 229 229 230 231 231 230 230 229 227 226 227 225 223 225 227 229 233 234 228 226 229 232 235 239 241 242 243 243 244 245 246 247 249 248 246 246 247 248 251 254 257 259 261
231 231 231 231 231 232 232 231 230 230 230 230 231 231 231 231 232 233 233 233 232 231 231 231 231 231 230 230 228 227 228 228 228 230 232 235 238 237 231 228 229 233 236 240 242 243 243 243 244 245 245 247 248 248 247 246 245 245 246 249 252 255 257
231 232 232 232 232 232 232 232 232 231 231 231 231 231 231 231 232 232 233 234 234 233 233 231 231 231 231 230 230 229 229 230 231 232 234 235 236 235 232 230 230 232 234 237 240 243 245 246 246 246 246 247 248 249 250 249 247 246 246 247 249 252 254
231 232 232 232 232 232 232 232 233 232 232 232 231 230 230 231 231 232 233 234 234 235 235 234 232 232 231 231 231 231 231 231 232 233 234 234 234 233 232 231 230 231 233 234 237 240 243 246 248 248 248 248 248 250 252 252 250 249 249 248 249 251 254
231 231 232 233 233 232 232 232 233 233 233 233 232 231 230 230 231 232 233 234 235 236 236 236 235 233 232 232 232 232 232 232 232 232 233 234 233 233 232 231 231 232 233 235 236 237 239 241 244 247 249 249 249 250 251 252 252 251 250 250 250 250 253
230 231 232 232 233 233 232 232 233 233 234 234 233 233 232 231 231 232 233 234 235 236 237 237 237 236 234 233 232 232 232 232 232 232 233 234 234 233 233 233 233 233 234 236 237 238 238 237 238 241 244 246 248 249 250 251 252 251 251 251 250 250 252
230 231 232 232 233 233 232 232 232 233 233 234 234 234 233 233 232 232 232 233 234 235 236 237 238 238 237 235 234 233 233 232 232 233 234 235 235 235 236 236 236 237 237 238 239 239 240 239 238 237 238 240 243 247 249 251 252 252 252 250 250 249 249
229 230 231 232 232 233 232 232 232 232 233 233 234 234 234 233 233 232 232 232 233 234 236 237 237 238 239 238 237 235 234 233 232 233 234 235 236 237 237 238 239 239 240 240 241 241 242 242 241 240 239 239 239 242 244 247 249 251 252 251 250 248 246
229 230 231 232 233 233 233 232 232 232 232 233 233 234 234 233 233 233 233 233 233 234 235 236 237 238 239 239 239 238 236 234 233 233 234 235 236 237 238 239 240 241 241 242 243 243 243 244 244 243 242 242 241 240 241 242 244 246 248 250 250 249 247
229 230 231 232 233 233 234 233 233 232 232 233 233 233 234 234 233 233 233 233 233 234 234 235 236 237 238 238 239 239 238 237 235 234 234 235 236 237 238 239 240 241 242 242 243 244 244 244 244 244 244 244 244 243 242 241 241 243 244 245 247 248 249
230 231 231 232 233 234 234 234 234 233 233 233 233 234 234 234 234 234 233 233 233 234 234 234 235 236 237 238 238 239 240 239 238 237 235 235 235 237 238 239 240 242 242 242 242 243 243 243 243 244 244 244 244 244 244 243 243 243 243 242 243 244 247
231 231 232 232 233 234 234 234 234 234 234 233 233 234 234 234 234 234 234 234 234 234 234 234 235 235 236 237 238 239 240 240 240 240 238 237 236 236 237 239 240 241 242 243 242 242 242 242 243 243 244 244 244 244 245 245 244 244 244 244 243 243 245
Height
10997 11002 11005 11008 11011 11013 11016 11019 11021 11023 11024 11025 11026 11026 11026 11026 11026 11026 11026 11026 11026 11026 11026 11026 11026 11026 11026 11026 11026 11026 11027 11028 11029 11029 11029 11029 11030 11030 11030 11030 11029 11029 11029 11029 11029 11030 11030 11029 11029 11028 11028 11027 11026 11025 11025 11024 11022 11021 11020 11019 11019 11018 11017
10993 10997 11001 11005 11008 11011 11014 11017 11019 11021 11022 11023 11023 11023 11023 11023 11024 11024 11024 11024 11024 11024 11024 11024 11024 11025 11025 11025 11025 11025 11026 11027 11028 11028 11029 11029 11029 11029 11029 11029 11029 11029 11029 11029 11029 11029 11029 11029 11029 11028 11028 11027 11027 11026 11025 11024 11023 11022 11021 11020 11019 11019 11018
10989 10993 10997 11001 11005 11009 11011 11013 11015 11018 11020 11020 11021 11021 11022 11022 11022 11022 11022 11022 11022 11022 11023 11023 11023 11023 11024 11024 11024 11024 11024 11025 11026 11027 11027 11027 11028 11028 11028 11028 11028 11029 11029 11029 11029 11029 11028 11028 11028 11028 11028 11027 11027 11026 11026 11025 11024 11023 11022 11021 11020 11019 11018
10985 10989 10994 10997 11001 11005 11007 11010 11013 11016 11018 11019 11019 11020 11020 11021 11021 11020 11020 11020 11020 11021 11021 11022 11021 11022 11023 11024 11024 11024 11024 11024 11025 11025 11026 11026 11027 11027 11027 11027 11027 11028 11028 11028 11028 11028 11028 11028 11028 11028 11028 11027 11027 11027 11026 11025 11025 11024 11023 11022 11021 11020 11019
10982 10986 10990 10992 10996 11001 11005 11009 11013 11015 11017 11017 11018 11017 11016 11017 11019 11018 11018 11018 11018 11019 11019 11020 11020 11020 11021 11022 11022 11023 11023 11023 11024 11024 11025 11025 11025 11026 11026 11026 11026 11027 11028 11028 11028 11028 11028 11028 11028 11027 11027 11027 11027 11027 11026 11026 11025 11024 11023 11023 11022 11021 11020
10978 10982 10984 10986 10991 10999 11006 11010 11013 11014 11012 11012 11013 11014 11012 11013 11015 11015 11015 11015 11015 11016 11018 11019 11019 11019 11019 11020 11021 11021 11022 11023 11023 11023 11024 11024 11024 11025 11025 11025 11026 11026 11027 11028 11028 11028 11028 11028 11027 11027 11027 11027 11027 11027 11026 11026 11025 11025 11024 11023 11023 11022 11021
10972 10975 10977 10981 10987 10997 11005 11008 11009 11008 11007 11009 11010 11010 11009 11010 11011 11012 11013 11012 11012 11014 11017 11018 11018 11018 11019 11019 11020 11020 11021 11021 11022 11022 11023 11024 11024 11024 11024 11025 11025 11025 11026 11027 11027 11028 11028 11028 11027 11027 11026 11026 11026 11027 11026 11026 11025 11025 11024 11024 11024 11023 11022
10965 10967 10971 10977 10984 10993 11000 11001 11002 11005 11008 11010 11009 11009 11010 11011 11010 11010 11011 11010 11010 11012 11014 11016 11017 11017 11018 11019 11019 11020 11020 11020 11020 11021 11021 11022 11023 11023 11023 11024 11024 11024 11024 11025 11026 11026 11027 11027 11026 11026 11026 11026 11025 11026 11026 11026 11025 11025 11024 11024 11024 11024 11023
10958 10961 10965 10972 10979 10989 10996 10996 10996 11001 11006 11007 11007 11008 11011 11011 11009 11008 11008 11007 11008 11010 11011 11014 11015 11016 11017 11017 11018 11018 11019 11019 11020 11020 11020 11021 11021 11022 11022 11022 11022 11022 11022 11022 11023 11024 11025 11025 11025 11025 11025 11025 11024 11024 11024 11025 11025 11025 11024 11024 11024 11024 11024
10951 10955 10960 10966 10974 10985 10992 10990 10988 10993 11000 11003 11004 11005 11008 11008 11006 11003 11003 11005 11007 11007 11008 11011 11012 11014 11015 11015 11016 11016 11016 11017 11018 11019 11020 11020 11020 11020 11020 11020 11020 11020 11020 11020 11020 11021 11022 11022 11022 11022 11022 11023 11023 11023 11023 11023 11024 11024 11024 11024 11023 11024 11024
10944 10949 10954 10960 10967 10976 10983 10984 10983 10987 10995 10998 10998 10998 11002 11003 11000 10999 11001 11004 11006 11007 11006 11007 11009 11011 11013 11013 11013 11013 11012 11013 11015 11018 11019 11019 11018 11018 11019 11019 11019 11019 11019 11019 11019 11019 11020 11020 11020 11020 11020 11020 11020 11021 11021 11022 11022 11023 11023 11023 11023 11023 11024
10937 10942 10947 10953 10959 10966 10972 10976 10978 10982 10988 10992 10991 10992 10995 10998 10998 10998 11000 11002 11004 11006 11005 11004 11006 11008 11009 11010 11011 11011 11010 11011 11014 11016 11017 11017 11017 11017 11017 11017 11018 11018 11018 11018 11018 11018 11019 11019 11019 11019 11018 11018 11018 11018 11019 11020 11021 11021 11022 11022 11022 11022 11023
10929 10934 10940 10946 10951 10956 10962 10968 10972 10976 10981 10985 10986 10988 10992 10996 10997 10997 10998 10999 11001 11003 11004 11004 11006 11007 11007 11007 11009 11010 11010 11011 11013 11014 11014 11015 11015 11015 11016 11016 11017 11017 11017 11017 11017 11017 11017 11018 11019 11019 11018 11016 11016 11016 11017 11018 11019 11020 11020 11021 11021 11022 11022
10920 10925 10931 10937 10943 10949 10954 10960 10964 10969 10974 10978 10981 10984 10989 10992 10994 10995 10997 10998 10998 11000 11002 11003 11004 11005 11006 11006 11007 11008 11009 11010 11011 11011 11011 11013 11013 11013 11013 11014 11015 11016 11016 11016 11016 11016 11016 11016 11017 11017 11017 11016 11015 11015 11015 11016 11018 11019 11019 11020 11020 11021 11021
10912 10917 10923 10929 10935 10941 10946 10951 10957 10962 10967 10972 10976 10981 10984 10986 10990 10994 10996 10996 10996 10998 11000 11000 11001 11002 11004 11005 11005 11005 11006 11007 11008 11008 11008 11010 11011 11010 11011 11012 11013 11014 11014 11014 11014 11014 11014 11014 11014 11014 11015 11015 11015 11015 11015 11015 11016 11017 11018 11019 11019 11020 11020
10906 10910 10916 10922 10928 10934 10939 10944 10950 10955 10960 10965 10970 10975 10978 10980 10986 10991 10993 10992 10992 10993 10995 10997 10998 11000 11003 11005 11004 11004 11004 11004 11005 11005 11005 11007 11008 11008 11008 11009 11010 11011 11012 11013 11013 11012 11012 11012 11011 11012 11012 11013 11013 11014 11014 11014 11015 11016 11017 11018 11019 11019 11020
10901 10904 10909 10915 10921 10927 10932 10938 10943 10947 10952 10957 10962 10966 10969 10973 10977 10981 10984 10985 10987 10989 10991 10992 10995 10998 11001 11003 11002 11002 11001 11000 11001 11001 11001 11003 11005 11005 11006 11006 11007 11008 11010 11010 11010 11010 11009 11009 11009 11010 11010 11010 11010 11011 11012 11013 11014 11015 11016 11017 11018 11019 11020
10893 10898 10902 10908 10914 10920 10926 10931 10936 10940 10945 10950 10954 10958 10961 10965 10968 10970 10974 10978 10982 10986 10986 10985 10990 10995 10996 10996 10997 10998 10997 10996 10996 10997 10998 10999 11001 11002 11003 11003 11004 11005 11006 11007 11007 11007 11007 11007 11007 11007 11007 11007 11007 11008 11009 11010 11012 11013 11014 11015 11017 11018 11019
10885 10891 10896 10902 10907 10913 10919 10924 10929 10933 10937 10942 10946 10950 10954 10957 10960 10963 10968 10972 10978 10982 10980 10979 10985 10989 10988 10989 10992 10993 10992 10991 10992 10993 10994 10995 10997 10999 10999 10999 11000 11001 11002 11003 11004 11004 11004 11004 11005 11005 11005 11005 11005 11005 11006 11008 11009 11010 11012 11013 11015 11017 11018
10877 10883 10889 10895 10900 10906 10911 10915 10920 10925 10929 10933 10938 10942 10945 10949 10952 10957 10962 10967 10972 10975 10974 10974 10980 10983 10982 10985 10988 10988 10986 10986 10986 10987 10989 10990 10992 10994 10994 10995 10996 10997 10998 10999 11000 11000 11001 11001 11002 11003 11003 11003 11003 11003 11004 11005 11007 11008 11009 11011 11013 11014 11016
10868 10873 10879 10886 10892 10898 10903 10906 10911 10915 10919 10924 10928 10932 10936 10940 10944 10949 10954 10958 10963 10966 10967 10969 10973 10976 10976 10979 10981 10980 10979 10979 10981 10982 10984 10985 10987 10988 10990 10991 10992 10993 10994 10994 10995 10996 10997 10998 10999 10999 11000 11000 11001 11001 11002 11003 11005 11006 11007 11009 11010 11012 11013
10858 10863 10868 10875 10881 10888 10893 10897 10901 10905 10909 10914 10918 10922 10926 10931 10936 10940 10944 10949 10954 10958 10960 10962 10965 10967 10968 10968 10970 10971 10973 10974 10976 10977 10979 10981 10982 10984 10986 10986 10987 10988 10989 10990 10991 10992 10993 10994 10995 10996 10997 10997 10998 10999 11000 11002 11003 11004 11005 11007 11008 11009 11010
10846 10852 10857 10863 10869 10876 10882 10888 10892 10895 10899 10903 10907 10911 10916 10921 10927 10931 10935 10940 10945 10949 10952 10955 10957 10958 10959 10960 10962 10965 10968 10969 10971 10973 10976 10978 10980 10981 10982 10982 10983 10984 10985 10985 10986 10987 10988 10990 10991 10992 10993 10994 10995 10996 10998 11001 11002 11003 11004 11005 11006 11006 11007
10834 10840 10845 10851 10858 10864 10871 10877 10881 10885 10889 10892 10897 10902 10907 10912 10918 10923 10927 10931 10935 10939 10943 10946 10949 10950 10952 10953 10956 10959 10962 10964 10966 10968 10971 10974 10975 10977 10978 10978 10978 10979 10980 10981 10982 10983 10984 10986 10987 10988 10989 10990 10991 10993 10995 10998 11001 11001 11002 11002 11003 11003 11004
10822 10827 10833 10839 10845 10852 10858 10865 10871 10875 10878 10882 10887 10893 10898 10903 10908 10914 10918 10922 10926 10930 10933 10937 10940 10942 10944 10946 10949 10952 10955 10957 10960 10961 10963 10965 10967 10971 10973 10974 10974 10975 10976 10976 10977 10978 10979 10981 10982 10984 10985 10986 10988 10989 10991 10994 10997 10998 10998 10998 10999 11000 11000
10807 10812 10818 10825 10831 10838 10845 10852 10860 10865 10868 10872 10878 10884 10889 10893 10897 10903 10909 10913 10918 10921 10924 10928 10931 10933 10936 10938 10941 10944 10947 10950 10952 10954 10955 10957 10960 10964 10967 10969 10970 10971 10971 10971 10971 10973 10974 10976 10977 10979 10980 10982 10984 10985 10986 10988 10991 10993 10993 10994 10995 10996 10997
10790 10797 10804 10811 10817 10824 10832 10840 10848 10855 10859 10863 10869 10874 10879 10883 10888 10893 10898 10904 10909 10913 10916 10918 10921 10924 10927 10930 10933 10936 10939 10941 10944 10946 10948 10951 10953 10956 10960 10962 10963 10964 10965 10965 10966 10968 10969 10971 10972 10974 10976 10978 10979 10980 10981 10982 10984 10986 10988 10989 10990 10992 10993
10779 10786 10794 10800 10806 10813 10820 10828 10837 10845 10849 10853 10859 10864 10869 10873 10878 10883 10887 10893 10898 10902 10905 10909 10912 10916 10919 10922 10925 10927 10930 10932 10935 10938 10941 10944 10946 10949 10952 10954 10956 10958 10959 10959 10961 10962 10964 10965 10967 10969 10972 10973 10974 10975 10976 10977 10978 10980 10982 10984 10986 10987 10988
10767 10774 10782 10790 10795 10802 10810 10818 10826 10833 10838 10842 10848 10854 10860 10864 10868 10872 10877 10882 10887 10891 10894 10899 10903 10907 10910 10913 10915 10918 10921 10924 10927 10930 10933 10936 10939 10942 10944 10946 10949 10950 10952 10954 10955 10956 10958 10959 10961 10963 10966 10968 10969 10969 10970 10971 10972 10975 10977 10980 10982 10982 10983
10756 10764 10772 10779 10786 10793 10800 10807 10814 10820 10825 10830 10837 10844 10850 10853 10857 10861 10866 10871 10876 10879 10883 10889 10894 10898 10901 10904 10906 10909 10912 10915 10918 10921 10925 10928 10931 10934 10936 10938 10940 10942 10944 10946 10948 10950 10951 10953 10954 10956 10959 10962 10963 10964 10964 10965 10967 10970 10973 10975 10977 10977 10978
10748 10755 10761 10766 10773 10780 10788 10796 10802 10807 10811 10818 10825 10833 10838 10842 10847 10851 10856 10861 10865 10869 10873 10878 10883 10887 10891 10894 10897 10900 10904 10906 10909 10913 10916 10919 10921 10924 10926 10928 10931 10933 10935 10937 10940 10942 10945 10947 10948 10949 10952 10955 10956 10957 10958 10959 10961 10965 10968 10969 10971 10973 10973
10737 10742 10747 10753 10759 10767 10777 10785 10790 10795 10799 10805 10813 10821 10827 10832 10837 10842 10846 10850 10854 10857 10861 10866 10871 10876 10880 10884 10888 10891 10894 10898 10901 10904 10906 10909 10911 10914 10916 10919 10922 10924 10926 10929 10932 10935 10938 10940 10942 10943 10946 10947 10948 10950 10951 10953 10955 10959 10961 10963 10965 10967 10969
10725 10730 10736 10741 10746 10754 10763 10771 10777 10782 10788 10793 10801 10809 10815 10820 10826 10830 10834 10837 10841 10845 10849 10854 10860 10864 10868 10873 10878 10881 10885 10888 10891 10893 10896 10898 10901 10904 10907 10910 10912 10915 10917 10920 10923 10926 10929 10932 10934 10937 10939 10940 10942 10943 10944 10946 10949 10951 10953 10955 10957 10960 10963
10714 10718 10722 10726 10731 10738 10746 10755 10763 10770 10776 10781 10787 10793 10799 10805 10811 10816 10820 10825 10830 10834 10839 10844 10848 10852 10856 10861 10866 10870 10874 10877 10880 10883 10885 10888 10891 10894 10897 10900 10903 10905 10908 10911 10914 10917 10920 10923 10926 10929 10931 10932 10934 10936 10937 10939 10941 10942 10944 10946 10949 10953 10956
10701 10703 10707 10711 10717 10724 10732 10741 10750 10757 10763 10768 10772 10777 10783 10789 10796 10802 10808 10813 10818 10823 10828 10832 10836 10839 10843 10848 10852 10857 10861 10864 10868 10872 10875 10877 10880 10883 10886 10890 10893 10896 10899 10901 10904 10908 10912 10915 10917 10919 10922 10924 10926 10928 10930 10932 10934 10934 10935 10938 10941 10944 10946
10685 10689 10695 10700 10704 10710 10718 10727 10736 10743 10749 10753 10756 10761 10768 10774 10781 10788 10795 10801 10806 10811 10815 10819 10822 10826 10830 10834 10838 10843 10847 10851 10855 10860 10864 10867 10869 10872 10876 10880 10883 10886 10889 10892 10895 10898 10901 10904 10906 10909 10912 10914 10916 10919 10921 10923 10926 10927 10928 10930 10933 10935 10936
10673 10679 10685 10689 10692 10697 10704 10712 10720 10726 10732 10737 10742 10748 10755 10762 10768 10775 10781 10787 10793 10797 10801 10805 10810 10813 10817 10821 10824 10828 10833 10837 10842 10847 10851 10855 10859 10862 10865 10869 10872 10875 10878 10881 10884 10887 10890 10892 10894 10898 10901 10903 10905 10908 10911 10914 10917 10920 10921 10922 10925 10926 10927
10662 10667 10673 10677 10680 10684 10689 10696 10703 10710 10717 10723 10729 10735 10742 10748 10755 10761 10767 10772 10778 10783 10788 10792 10796 10800 10803 10806 10810 10815 10820 10824 10829 10833 10838 10843 10847 10851 10855 10857 10860 10863 10866 10868 10872 10875 10878 10880 10883 10886 10889 10891 10894 10898 10902 10904 10907 10910 10913 10915 10917 10918 10918